changsha , China , ASIA

  • Thursday
    February 27

    Shower  Shower

    59 °F  54 °F

    North  North

        

  • Friday
    February 28

    Shower  Shower

    55 °F  48 °F

    North  North

        

  • Saturday
    February 29

    Light rain  Light rain

    55 °F  50 °F

    Northwest  Northwest

        

  • Sunday
    March 1

    Cloudy  Overcast

    68 °F  50 °F

    North  North

        

  • Monday
    March 2

    Light rain  Light rain

    57 °F  50 °F

    North  North

        

  • Tuesday
    March 3

    Light rain  Overcast

    57 °F  48 °F

    North  North

        

  • Wednesday
    March 4

    Shower  Shower

    54 °F  46 °F

    North  North

        

Date   Weather Temperature Humidity Total_rain Visibility Wind
11:00 Overcast 57°F 90.9% 0mm 999.9km Northwest  2.3m/s
14:00 Shower 59°F 90.6% 0.2mm 999.9km Northwest  2.5m/s
17:00 Shower 59°F 90.3% 0.1mm 999.9km Northwest  2.6m/s
20:00 Shower 57°F 94.9% 0.2mm 999.9km Northwest  2.1m/s
23:00 Shower 56°F 96.6% 0.2mm 999.9km Northwest  2.0m/s
02:00 Shower 55°F 97.3% 0.2mm 999.9km Northwest  1.9m/s
05:00 Shower 55°F 98% 0.2mm 999.9km Northwest  2.2m/s
08:00 Shower 54°F 83.7% 0.2mm 999.9km Northwest  2.8m/s
11:00 Shower 55°F 83.8% 0.3mm 999.9km Northwest  2.3m/s
14:00 Shower 55°F 91.4% 0.2mm 999.9km Northwest  2.3m/s
17:00 Shower 54°F 89.6% 0.1mm 999.9km Northwest  3.2m/s
20:00 Shower 54°F 92.6% 0.2mm 999.9km Northwest  2.6m/s
23:00 Shower 53°F 95.7% 0.4mm 999.9km Northwest  2.3m/s
02:00 Shower 49°F 98% 0.6mm 999.9km Northwest  2.2m/s
05:00 Shower 51°F 98% 0.9mm 999.9km Northwest  2.2m/s
08:00 Shower 49°F 96.2% 3mm 999.9km Northwest  2.2m/s
11:00 Light rain 51°F 84.4% 2.9mm 999.9km Northwest  2.1m/s
14:00 Light rain 55°F 91.2% 1.2mm 999.9km Northwest  2.5m/s
17:00 Light rain 55°F 89.4% 2.3mm 999.9km Northwest  2.4m/s
20:00 Light rain 54°F 89.6% 1.3mm 999.9km Northwest  2.4m/s
23:00 Light rain 52°F 92.6% 1.2mm 999.9km Northwest  2.7m/s
02:00 Light rain 52°F 95.9% 0.1mm 999.9km Northwest  2.4m/s
05:00 Cloudy 52°F 98% 0mm 999.9km Northwest  2.0m/s
08:00 Light rain 50°F 96.9% 0.4mm 999.9km Northwest  2.0m/s
11:00 Cloudy 60°F 77.2% 0mm 999.9km Northwest  2.6m/s
14:00 Cloudy 65°F 87.9% 0mm 999.9km Northwest  2.8m/s
17:00 Cloudy 68°F 84.7% 0mm 999.9km Northwest  2.2m/s
20:00 Cloudy 68°F 93% 0mm 999.9km Northwest  2.6m/s
23:00 Overcast 60°F 95.2% 0mm 999.9km Northeast  2.5m/s
02:00 Overcast 56°F 96.1% 0mm 999.9km Northeast  2.5m/s
05:00 Overcast 54°F 98% 0mm 999.9km Northeast  2.5m/s
08:00 Overcast 50°F 91.9% 0mm 999.9km Northeast  2.2m/s
11:00 Overcast 56°F 74.2% 0mm 999.9km Northeast  2.8m/s
14:00 Light rain 57°F 81.9% 0.5mm 999.9km Northwest  3.0m/s
17:00 Light rain 56°F 82.6% 0.8mm 999.9km Northwest  3.4m/s
20:00 Light rain 55°F 86.5% 2.4mm 999.9km Northwest  2.8m/s
23:00 Light rain 54°F 90.3% 0.1mm 999.9km Northwest  2.4m/s
02:00 Moderate rain 52°F 97.7% 3.2mm 999.9km Northwest  2.5m/s
05:00 Light rain 51°F 98% 1.2mm 999.9km Northwest  2.3m/s
08:00 Moderate rain 50°F 96.9% 5.5mm 999.9km Northwest  2.2m/s
11:00 Light rain 56°F 92.1% 1.3mm 999.9km Northwest  2.5m/s
14:00 Moderate rain 57°F 89.7% 4.7mm 999.9km Northwest  2.7m/s
17:00 Light rain 56°F 89% 0.1mm 999.9km Northeast  2.8m/s
20:00 Moderate rain 54°F 93.6% 3.6mm 999.9km Northeast  2.6m/s
23:00 Overcast 52°F 97.2% 0mm 999.9km Northeast  3.0m/s
02:00 Overcast 51°F 97.6% 0mm 999.9km Northeast  2.5m/s
05:00 Overcast 49°F 98% 0mm 999.9km Northeast  2.5m/s
08:00 Overcast 49°F 94.9% 0mm 999.9km Northeast  1.7m/s
11:00 Overcast 53°F 77.3% 0mm 999.9km Northeast  2.9m/s
14:00 Shower 53°F 84.1% 6.1mm 999.9km Northeast  2.3m/s
17:00 Overcast 53°F 86.9% 0mm 999.9km Northeast  2.4m/s
20:00 Shower 52°F 92.4% 0.9mm 999.9km Southeast  2.4m/s
23:00 Overcast 49°F 97.7% 0mm 999.9km Northeast  1.4m/s
02:00 Overcast 48°F 96.9% 0mm 999.9km Southeast  2.2m/s
05:00 Cloudy 47°F 97.4% 0mm 999.9km Northeast  2.0m/s